Weather History for Tulsa Jones, OK

Change the Weather History Date:

Monday, October 14, 2013

  Actual Average (KTUL) Record (KTUL)
Temperature  
Mean Temperature 62 °F 62 °F  
Max Temperature 66 °F 74 °F 92 °F (1963)
Min Temperature 59 °F 51 °F 33 °F (2002)
Degree Days  
Heating Degree Days 2 4  
Month to date heating degree days 49  
Since 1 July heating degree days 73  
Cooling Degree Days 0 2  
Month to date cooling degree days 41  
Year to date cooling degree days 2006  
Growing Degree Days 12 (Base 50)    
Moisture  
Dew Point 59 °F    
Average Humidity 88    
Maximum Humidity 100    
Minimum Humidity 63    
Precipitation  
Precipitation 0.97 in 0.12 in 1.85 in (1984)
Month to date precipitation 1.74  
Year to date precipitation 33.48  
Sea Level Pressure  
Sea Level Pressure 30.05 in    
Wind  
Wind Speed 7 mph (SE)    
Max Wind Speed 12 mph    
Max Gust Speed 16 mph    
Visibility 6 miles    
Events Rain    
T = Trace of Precipitation, MM = Missing Value Source: NWS Daily Summary

Daily Weather History Graph

Daily Weather History Graph

Search for Another Location

Airport:

Trip Planner

Search our weather history database for the weather conditions in past years. The results will help you decide how hot, cold, wet, or windy it might be!

Date:

Astronomy

Oct. 14, 2013 Rise Set
Actual Time 7:30 AM CDT 6:49 PM CDT
Civil Twilight 7:04 AM CDT 7:14 PM CDT
Nautical Twilight 6:34 AM CDT 7:44 PM CDT
Astronomical Twilight 6:04 AM CDT 8:14 PM CDT
Moon 4:12 PM CDT (10/14) 2:55 AM CDT (10/14)
Length of Visible Light 12h 10m
Length of Day
11h 18m
Waxing Gibbous, 79% of the Moon is Illuminated
Oct 14
Waxing Gibbous
Oct 18
Full
Oct 26
Last Quarter
Nov 3
New
Nov 9
First Quarter

Hourly Weather History & Observations

Time (CDT) Temp. Dew Point Humidity Pressure Visibility Wind Dir Wind Speed Gust Speed Precip Events Conditions
12:53 AM 66.9 °F 57.9 °F 73% 30.21 in 10.0 mi East 4.6 mph - N/A   Clear
1:53 AM 66.9 °F 59.0 °F 76% 30.21 in 10.0 mi ESE 5.8 mph - N/A   Mostly Cloudy
2:53 AM 66.0 °F 57.9 °F 75% 30.19 in 10.0 mi ESE 6.9 mph - N/A   Clear
3:53 AM 66.0 °F 57.0 °F 73% 30.17 in 10.0 mi SE 9.2 mph - N/A   Clear
4:53 AM 66.0 °F 55.0 °F 68% 30.17 in 10.0 mi SE 9.2 mph - N/A   Scattered Clouds
5:53 AM 66.0 °F 53.1 °F 63% 30.17 in 10.0 mi SE 4.6 mph - N/A   Overcast
6:53 AM 64.9 °F 52.0 °F 63% 30.16 in 10.0 mi SE 6.9 mph - N/A   Overcast
7:53 AM 64.0 °F 53.1 °F 67% 30.15 in 10.0 mi ESE 9.2 mph - 0.00 in Rain Light Rain
8:38 AM 62.6 °F 53.6 °F 72% 30.13 in 10.0 mi SE 5.8 mph - 0.00 in   Overcast
8:53 AM 63.0 °F 53.1 °F 70% 30.16 in 10.0 mi SE 3.5 mph - 0.00 in   Overcast
9:53 AM 60.1 °F 55.0 °F 83% 30.15 in 4.0 mi SE 8.1 mph - 0.06 in Rain Light Rain
10:11 AM 59.0 °F 55.4 °F 88% 30.13 in 2.0 mi SSE 4.6 mph - 0.07 in Rain Heavy Rain
10:21 AM 60.8 °F 55.4 °F 82% 30.13 in 6.0 mi SE 6.9 mph - 0.08 in Rain Light Rain
10:53 AM 59.0 °F 57.0 °F 93% 30.13 in 9.0 mi ESE 6.9 mph - 0.10 in Rain Light Rain
11:53 AM 60.1 °F 57.0 °F 90% 30.12 in 5.0 mi Variable 5.8 mph - 0.06 in Rain Rain
12:14 PM 60.8 °F 57.2 °F 88% 30.08 in 2.5 mi SE 4.6 mph - 0.06 in Rain Rain
12:21 PM 60.8 °F 57.2 °F 88% 30.08 in 5.0 mi SE 4.6 mph - 0.07 in Rain Light Rain
12:53 PM 60.1 °F 57.9 °F 93% 30.09 in 6.0 mi Variable 6.9 mph - 0.11 in Rain Rain
1:08 PM 60.8 °F 57.2 °F 88% 30.06 in 6.0 mi SE 6.9 mph - 0.02 in Rain Light Rain
1:39 PM 60.8 °F 59.0 °F 94% 30.04 in 5.0 mi SE 6.9 mph - 0.07 in Rain Rain
1:51 PM 60.8 °F 59.0 °F 94% 30.03 in 4.0 mi SSE 5.8 mph - 0.09 in Rain Rain
1:53 PM 61.0 °F 59.0 °F 93% 30.05 in 4.0 mi SSE 8.1 mph - 0.10 in Rain Light Rain
2:33 PM 60.8 °F 60.8 °F 100% 30.01 in 2.0 mi SSE 5.8 mph - 0.12 in Rain Heavy Rain
2:36 PM 60.8 °F 60.8 °F 100% 30.00 in 1.8 mi SE 5.8 mph - 0.14 in Rain Heavy Rain
2:42 PM 60.8 °F 60.8 °F 100% 29.99 in 2.0 mi SE 8.1 mph - 0.17 in Rain Heavy Rain
2:51 PM 60.8 °F 60.8 °F 100% 30.00 in 3.0 mi SE 6.9 mph - 0.20 in Rain Rain
2:53 PM 61.0 °F 60.1 °F 97% 30.01 in 2.5 mi SSE 8.1 mph - 0.21 in Rain Rain
3:00 PM 60.8 °F 60.8 °F 100% 29.99 in 2.5 mi SE 5.8 mph - 0.04 in Rain Heavy Rain
3:25 PM 62.6 °F 60.8 °F 94% 29.98 in 4.0 mi SE 6.9 mph - 0.12 in Rain Rain
3:53 PM 62.1 °F 61.0 °F 96% 29.99 in 2.5 mi SE 8.1 mph - 0.19 in Rain Heavy Rain
4:06 PM 62.6 °F 60.8 °F 94% 29.96 in 1.5 mi SE 9.2 mph 16.1 mph 0.10 in Rain Heavy Rain
4:14 PM 62.6 °F 60.8 °F 94% 29.96 in 2.5 mi SE 5.8 mph - 0.10 in Rain Light Rain
4:40 PM 62.6 °F 62.6 °F 100% 29.95 in 7.0 mi SSE 9.2 mph - 0.11 in Rain Light Rain
4:53 PM 63.0 °F 62.1 °F 97% 29.97 in 9.0 mi SE 8.1 mph - 0.11 in   Overcast
5:53 PM 64.9 °F 63.0 °F 93% 29.96 in 10.0 mi South 10.4 mph - 0.00 in   Overcast
6:53 PM 66.0 °F 64.0 °F 93% 29.96 in 10.0 mi SSE 9.2 mph - N/A   Overcast
7:53 PM 64.9 °F 64.0 °F 97% 29.95 in 8.0 mi SSE 9.2 mph 16.1 mph 0.01 in   Overcast
8:42 PM 66.2 °F 64.4 °F 94% 29.94 in 10.0 mi South 8.1 mph - N/A   Overcast
8:53 PM 66.0 °F 64.0 °F 93% 29.96 in 10.0 mi South 9.2 mph - N/A   Overcast
9:53 PM 66.0 °F 64.0 °F 93% 29.97 in 5.0 mi South 10.4 mph - 0.01 in Rain Light Rain
10:53 PM 66.0 °F 64.0 °F 93% 29.96 in 10.0 mi South 11.5 mph - 0.01 in   Overcast
11:53 PM 66.0 °F 64.0 °F 93% 29.94 in 10.0 mi South 11.5 mph - N/A   Overcast